Regional Weather Roundup
Issued by NWS

Home | Current Version | Previous Version | Graphics & Text | Print | Product List | Glossary On
Versions: 1 2 3 4 5 6 7 8 9 10 11 12 13 14 15 16 17 18 19 20 21 22 23 24 25 26 27 28 29 30 31 32 33 34 35 36 37 38 39 40 41 42 43 44 45 46 47 48 49 50
000
ASUS43 KLMK 250602
RWRKY
KENTUCKY REGIONAL WEATHER ROUNDUP
NATIONAL WEATHER SERVICE LOUISVILLE KY
200 AM EDT TUE APR 25 2017

NOTE "FAIR" INDICATES FEW OR NO CLOUDS BELOW 12,000 FEET
WITH NO SIGNIFICANT WEATHER AND/OR OBSTRUCTIONS TO VISIBILITY.

KYZ001>023-026-027-061>063-070>075-250700-
WESTERN AND SOUTH CENTRAL KENTUCKY

CITY           SKY/WX    TMP DP  RH WIND       PRES   REMARKS
PADUCAH        CLEAR     61  54  77 S6        29.75R
HENDERSON      CLEAR     57  50  77 S3        29.75S
OWENSBORO      CLEAR     60  54  80 CALM      29.76S
HOPKINSVILLE   CLEAR     55  55  98 W5        29.76S
BOWLING GREEN  CLEAR     57  56  96 CALM      29.76S
GLASGOW        NOT AVBL
$$

KYZ024-025-028>034-038-045-046-053-250700-
NORTH CENTRAL KENTUCKY

CITY           SKY/WX    TMP DP  RH WIND       PRES   REMARKS
LOUISVILLE/SDF PTCLDY    61  53  75 E3        29.77S
LOUISVILLE/LOU CLEAR     62  54  74 E3        29.77F
FORT KNOX      CLEAR     52  51  97 N5        29.75S
$$

KYZ035>037-039>044-047>052-055>060-089>105-250700-
NORTHEAST KENTUCKY

CITY           SKY/WX    TMP DP  RH WIND       PRES   REMARKS
LEXINGTON      CLEAR     54  50  86 NE8       29.79R
COVINGTON      PTCLDY    57  52  83 E10       29.81S
FRANKFORT      CLEAR     57  50  77 E7        29.77F
$$

KYZ054-064>069-076>088-106>120-250700-
SOUTHEAST KENTUCKY

CITY           SKY/WX    TMP DP  RH WIND       PRES   REMARKS
JACKSON        PTCLDY    54  52  93 NE3       29.77F
LONDON         CLEAR     54  50  86 CALM      29.76S
SOMERSET       CLOUDY    57  52  82 E5        29.78S
MIDDLESBORO    PTCLDY    54  54 100 CALM      29.76S
MONTICELLO     CLOUDY    56  56 100 NE12      29.78S
$$





USA.gov is the U.S. government's official web portal to all federal, state and local government web resources and services.